DECAYED

FENGYUN 1C DEB, 30976 (Decayed)

Orbit data source: Space-Track

FENGYUN 1C DEB, 30976 was space debris in SSO originally from a launch on Mon, 10 May 1999 UTC launched from the Taiyaun Space Center, China (TSC). Fengyun 1C debris stems from the Chinese weather satellite Fengyun-1C, which was intentionally destroyed by a Chinese anti-satellite missile in 2007. This event dramatically increased the amount of space debris, with thousands of trackable fragments posing hazards to satellites and human spaceflight. The Fengyun 1C debris cloud has become a focal point in discussions about space sustainability and the need for international regulations to prevent the creation of new debris.

Not visible in the next 10 days
Identifier
30976, 1999-025BBS
Orbit
Decayed
Country
Flag of CNCN / PRC
Related business
Manufacturer
Unknown
Mission
Decayed spacecraft
Bus & Motor
Unknown
Mass
Unknown
Launch date (UTC)
1999-05-10 (27 years ago)
Launch vehicle
Unknown
Launch site
Taiyaun Space Center, China (TSC)
Object type
Payload
Rocket body
Debris
Shape & HBR
Unknown shape, 0.1 m
Radar Cross Section
Small (<0.1 m²)

Expand to show TLE details & history
Last TLE update: 7 months ago

TLE from 7 months ago
0 FENGYUN 1C DEB
1 30976U 99025BBS 25272.92126911  .15126391  00000-0  51131-1 0  9999
2 30976  99.0850 161.9802 0015019 126.1151 234.1506 15.84095584638825
Epoch: 2025-09-29T22:06Z
TLE epoch observation values (Epoch: 2025-09-29T22:06:37.651Z)
Latitude
-0°
Longitude
-178.59473°
Altitude
327.896 km
Speed
7.708 km/s
True Right ascension
10h 47m 55s
True Declination
0° 00' 00"
Sunlit
Object was in daylight at epoch
Visualization orbit readout
Latitude
Unknown
Longitude
Unknown
Altitude
Unknown
Speed
Unknown
Apparent Right ascension
Unknown
Apparent Declination
Unknown
Sunlit
N/A
Visualization observer readout
Local Sidereal Time
17:11:51
Azimuth
Unknown
Elevation
Unknown
Doppler factor
Unknown
Orbital elements
Apogee altitude
325.889 km
Perigee altitude
305.782 km
Semi-major axis
6,693.972 km
Eccentricity
0.0015
Inclination
99.085°
RAAN
161.9802°
Arg. of periapsis
126.1151°
True anomaly
234.01125°
Mean anomaly
234.1506°
Eccentric anomaly
234.08091°
Mean motion
3.96294 °/min
Orbital period
90.84 mins
BSTAR
0.051131
Loading maneuver chart data...
Computing Atmospheric mass density...

Documentation

Showing up to 5 results
|